When you browse on this site, cookies collect data to enhance your experience and personalize the content and advertising you see.
Visit our Privacy Policy to learn more. By continuing to use the site, you agree to this use of cookies and data.
  • en France
  • Liste des pays
  • À 7 jours
  • Température de l'eau
  • Carte satellitaire
  • Carte météo
  • Widgets météo
  • user-avatar
    Se connecter

    Météo par heure à Zherebino

    Ce jour, 16 Janvier, Mercredi

    Heure Température Précipitation Vent Pression Humidité
    00:00 -7°C° 0.2 mm 3 m/s 733 mmHg 94%
    01:00 -7°C° 0.2 mm 3 m/s 733 mmHg 94%
    02:00 -6°C° 0 mm 3 m/s 733 mmHg 93%
    03:00 -6°C° 0.2 mm 3 m/s 734 mmHg 93%
    04:00 -6°C° 0.2 mm 3 m/s 734 mmHg 92%
    05:00 -6°C° 0.2 mm 3 m/s 734 mmHg 92%
    06:00 -7°C° 0 mm 3 m/s 735 mmHg 92%
    07:00 -8°C° 0 mm 3 m/s 735 mmHg 93%
    08:00 -8°C° 0 mm 3 m/s 735 mmHg 93%
    09:00 -8°C° 0 mm 3 m/s 736 mmHg 92%
    10:00 -8°C° 0 mm 3 m/s 737 mmHg 90%
    11:00 -8°C° 0 mm 4 m/s 737 mmHg 89%
    12:00 -8°C° 0 mm 4 m/s 738 mmHg 88%
    13:00 -8°C° 0 mm 4 m/s 738 mmHg 86%
    14:00 -7°C° 0 mm 3 m/s 739 mmHg 85%
    15:00 -8°C° 0 mm 3 m/s 739 mmHg 88%
    16:00 -8°C° 0 mm 2 m/s 740 mmHg 90%
    17:00 -9°C° 0 mm 2 m/s 740 mmHg 93%
    18:00 -9°C° 0 mm 2 m/s 740 mmHg 94%
    19:00 -9°C° 0 mm 2 m/s 740 mmHg 95%
    20:00 -9°C° 0 mm 2 m/s 740 mmHg 96%
    21:00 -9°C° 0 mm 2 m/s 740 mmHg 94%
    22:00 -9°C° 0 mm 3 m/s 740 mmHg 92%
    23:00 -9°C° 0 mm 3 m/s 740 mmHg 89%

    Demain, 17 Janvier, Jeudi

    Heure Température Précipitation Vent Pression Humidité
    00:00 -9°C° 0.2 mm 4 m/s 739 mmHg 90%
    01:00 -8°C° 0.2 mm 4 m/s 738 mmHg 90%
    02:00 -7°C° 0.2 mm 5 m/s 737 mmHg 91%
    03:00 -6°C° 0.3 mm 5 m/s 736 mmHg 90%
    04:00 -4°C° 0.3 mm 6 m/s 735 mmHg 90%
    05:00 -3°C° 0.3 mm 6 m/s 734 mmHg 89%
    06:00 -2°C° 0.3 mm 6 m/s 734 mmHg 90%
    07:00 -2°C° 0.3 mm 6 m/s 733 mmHg 91%
    08:00 -1°C° 0.3 mm 6 m/s 733 mmHg 92%
    09:00 -1°C° 0.5 mm 6 m/s 732 mmHg 92%
    10:00 -1°C° 0.5 mm 6 m/s 732 mmHg 92%
    11:00 -1°C° 0.5 mm 6 m/s 732 mmHg 92%
    12:00 -1°C° 0.6 mm 6 m/s 731 mmHg 91%
    13:00 -1°C° 0.6 mm 6 m/s 731 mmHg 90%
    14:00 -1°C° 0.6 mm 6 m/s 730 mmHg 89%
    15:00 -1°C° 0.4 mm 6 m/s 730 mmHg 88%
    16:00 -1°C° 0.4 mm 6 m/s 729 mmHg 87%
    17:00 -1°C° 0.4 mm 7 m/s 729 mmHg 86%
    18:00 -1°C° 0.1 mm 7 m/s 729 mmHg 84%
    19:00 -1°C° 0.1 mm 8 m/s 729 mmHg 82%
    20:00 -1°C° 0.1 mm 8 m/s 729 mmHg 80%
    21:00 -1°C° 0 mm 8 m/s 730 mmHg 80%
    22:00 -1°C° 0 mm 8 m/s 730 mmHg 80%
    23:00 -2°C° 0 mm 7 m/s 731 mmHg 80%

    Après-demain, 18 Janvier, Vendredi

    Heure Température Précipitation Vent Pression Humidité
    00:00 -2°C° 0 mm 6 m/s 732 mmHg 82%
    01:00 -3°C° 0 mm 6 m/s 733 mmHg 84%
    02:00 -2°C° 0 mm 5 m/s 734 mmHg 86%
    03:00 -2°C° 0 mm 3 m/s 734 mmHg 88%
    04:00 -3°C° 0 mm 2 m/s 734 mmHg 90%
    05:00 -2°C° 0 mm 1 m/s 734 mmHg 93%
    06:00 -2°C° 0.2 mm 1 m/s 734 mmHg 93%
    07:00 -4°C° 0.2 mm 2 m/s 734 mmHg 94%
    08:00 -5°C° 0.2 mm 2 m/s 734 mmHg 94%
    09:00 -7°C° 0.8 mm 3 m/s 735 mmHg 94%
    10:00 -7°C° 0.8 mm 3 m/s 735 mmHg 93%
    11:00 -9°C° 0.8 mm 4 m/s 735 mmHg 93%
    12:00 -9°C° 0.4 mm 4 m/s 736 mmHg 92%
    13:00 -9°C° 0.4 mm 4 m/s 737 mmHg 90%
    14:00 -10°C° 0.4 mm 4 m/s 737 mmHg 89%
    15:00 -10°C° 0 mm 4 m/s 738 mmHg 88%
    16:00 -9°C° 0 mm 3 m/s 739 mmHg 88%
    17:00 -10°C° 0 mm 3 m/s 740 mmHg 88%
    18:00 -9°C° 0 mm 3 m/s 741 mmHg 89%
    19:00 -9°C° 0 mm 3 m/s 741 mmHg 90%
    20:00 -9°C° 0 mm 4 m/s 742 mmHg 92%
    21:00 -8°C° 0 mm 4 m/s 742 mmHg 90%
    22:00 -7°C° 0 mm 4 m/s 742 mmHg 88%
    23:00 -7°C° 0 mm 5 m/s 743 mmHg 87%

    19 Janvier, Samedi

    Heure Température Précipitation Vent Pression Humidité
    00:00 -7°C° 0 mm 5 m/s 743 mmHg 87%
    01:00 -7°C° 0 mm 5 m/s 743 mmHg 87%
    02:00 -8°C° 0 mm 5 m/s 744 mmHg 87%
    03:00 -8°C° 0 mm 5 m/s 744 mmHg 87%
    04:00 -8°C° 0 mm 5 m/s 745 mmHg 87%
    05:00 -8°C° 0 mm 5 m/s 745 mmHg 87%
    06:00 -8°C° 0 mm 5 m/s 745 mmHg 86%
    07:00 -8°C° 0 mm 5 m/s 746 mmHg 86%
    08:00 -8°C° 0 mm 5 m/s 746 mmHg 86%
    09:00 -8°C° 0 mm 5 m/s 746 mmHg 85%
    10:00 -8°C° 0 mm 5 m/s 747 mmHg 84%
    11:00 -8°C° 0 mm 5 m/s 747 mmHg 83%
    12:00 -7°C° 0 mm 5 m/s 747 mmHg 83%
    13:00 -7°C° 0 mm 5 m/s 747 mmHg 82%
    14:00 -6°C° 0 mm 5 m/s 747 mmHg 81%
    15:00 -6°C° 0 mm 5 m/s 747 mmHg 82%
    16:00 -7°C° 0 mm 4 m/s 747 mmHg 83%
    17:00 -7°C° 0 mm 4 m/s 747 mmHg 84%
    18:00 -7°C° 0.2 mm 4 m/s 747 mmHg 87%
    19:00 -7°C° 0.2 mm 4 m/s 747 mmHg 89%
    20:00 -5°C° 0.2 mm 4 m/s 747 mmHg 92%
    21:00 -6°C° 0 mm 3 m/s 747 mmHg 92%
    22:00 -7°C° 0 mm 3 m/s 747 mmHg 93%
    23:00 -6°C° 0 mm 2 m/s 747 mmHg 93%

    20 Janvier, Dimanche

    Heure Température Précipitation Vent Pression Humidité
    00:00 -7°C° 0 mm 2 m/s 747 mmHg 93%
    01:00 -8°C° 0 mm 2 m/s 748 mmHg 92%
    02:00 -9°C° 0 mm 2 m/s 748 mmHg 92%
    03:00 -9°C° 0 mm 2 m/s 748 mmHg 92%
    04:00 -9°C° 0 mm 2 m/s 748 mmHg 92%
    05:00 -9°C° 0 mm 2 m/s 748 mmHg 92%
    06:00 -9°C° 0 mm 2 m/s 748 mmHg 92%
    07:00 -8°C° 0 mm 2 m/s 747 mmHg 92%
    08:00 -9°C° 0 mm 3 m/s 747 mmHg 91%
    09:00 -9°C° 0.1 mm 3 m/s 747 mmHg 91%
    10:00 -8°C° 0.1 mm 3 m/s 747 mmHg 91%
    11:00 -7°C° 0.1 mm 3 m/s 747 mmHg 91%
    12:00 -7°C° 0.1 mm 3 m/s 747 mmHg 91%
    13:00 -8°C° 0.1 mm 4 m/s 747 mmHg 91%
    14:00 -7°C° 0.1 mm 4 m/s 747 mmHg 91%
    15:00 -6°C° 0.1 mm 3 m/s 747 mmHg 91%
    16:00 -7°C° 0.1 mm 3 m/s 747 mmHg 91%
    17:00 -7°C° 0.1 mm 3 m/s 747 mmHg 91%
    18:00 -8°C° 0 mm 3 m/s 747 mmHg 92%
    19:00 -9°C° 0 mm 3 m/s 747 mmHg 93%
    20:00 -9°C° 0 mm 2 m/s 747 mmHg 94%
    21:00 -9°C° 0 mm 2 m/s 747 mmHg 95%
    22:00 -10°C° 0 mm 2 m/s 747 mmHg 95%
    23:00 -10°C° 0 mm 2 m/s 747 mmHg 95%

    21 Janvier, Lundi

    Heure Température Précipitation Vent Pression Humidité
    00:00 -12°C° 0 mm 2 m/s 748 mmHg 95%
    01:00 -12°C° 0 mm 2 m/s 748 mmHg 94%
    02:00 -13°C° 0 mm 2 m/s 748 mmHg 94%
    03:00 -10°C° 0 mm 1 m/s 748 mmHg 95%
    04:00 -10°C° 0 mm 1 m/s 748 mmHg 96%
    05:00 -10°C° 0 mm 1 m/s 748 mmHg 96%
    06:00 -10°C° 0.1 mm 1 m/s 749 mmHg 96%
    07:00 -10°C° 0.1 mm 2 m/s 749 mmHg 96%
    08:00 -9°C° 0.1 mm 2 m/s 750 mmHg 95%
    09:00 -9°C° 0 mm 2 m/s 750 mmHg 94%
    10:00 -12°C° 0 mm 3 m/s 750 mmHg 93%
    11:00 -12°C° 0 mm 3 m/s 751 mmHg 92%
    12:00 -12°C° 0 mm 3 m/s 751 mmHg 90%
    13:00 -12°C° 0 mm 3 m/s 751 mmHg 88%
    14:00 -12°C° 0 mm 3 m/s 752 mmHg 87%
    15:00 -12°C° 0 mm 3 m/s 752 mmHg 87%
    16:00 -12°C° 0 mm 3 m/s 752 mmHg 88%
    17:00 -12°C° 0 mm 2 m/s 753 mmHg 88%
    18:00 -13°C° 0 mm 2 m/s 753 mmHg 90%
    19:00 -13°C° 0 mm 2 m/s 753 mmHg 92%
    20:00 -14°C° 0 mm 2 m/s 753 mmHg 94%
    21:00 -14°C° 0 mm 2 m/s 754 mmHg 94%
    22:00 -15°C° 0 mm 2 m/s 754 mmHg 95%
    23:00 -15°C° 0 mm 2 m/s 754 mmHg 95%
    Voir plus